Date,TemperatureHighF,TemperatureAvgF,TemperatureLowF,DewpointHighF,DewpointAvgF,DewpointLowF,HumidityHigh,HumidityAvg,HumidityLow,PressureMaxIn,PressureMinIn,WindSpeedMaxMPH,WindSpeedAvgMPH,GustSpeedMaxMPH,PrecipitationSumIn
2013-1-1,45.4,41.5,38.2,39.6,37.5,34.6,89,86,80,29.90,29.27,16,9,29,0.00
2013-1-2,53.2,47.0,41.4,50.3,44.7,37.8,96,92,86,30.02,29.91,18,8,32,0.15
2013-1-3,53.0,51.8,50.3,50.3,48.5,46.5,93,88,84,30.38,30.02,21,12,36,0.01
2013-1-4,51.7,50.1,48.4,49.1,47.0,44.9,92,89,85,30.45,30.38,14,10,25,0.00
2013-1-5,51.6,50.0,48.4,48.4,46.4,45.1,91,87,82,30.43,30.26,13,7,23,0.01
2013-1-6,50.3,46.7,42.5,46.3,43.7,40.9,95,90,81,30.43,30.18,10,4,18,0.00
2013-1-7,49.6,48.5,46.7,48.6,46.7,45.5,97,93,89,30.17,30.00,9,3,17,0.43
2013-1-8,53.2,48.4,43.8,50.4,45.7,40.6,98,91,85,30.14,29.96,14,6,28,0.11
2013-1-9,46.2,43.1,40.4,42.2,40.1,38.0,93,89,85,30.14,30.04,10,6,17,0.00
2013-1-10,41.0,38.9,35.4,40.2,38.0,34.4,97,96,92,30.04,29.95,5,2,9,0.05
2013-1-11,42.1,39.8,37.4,39.9,38.0,34.9,97,93,87,30.01,29.96,5,1,10,0.02
2013-1-12,40.2,38.8,36.5,36.0,34.7,33.0,91,85,79,30.12,29.95,9,4,15,0.00
2013-1-13,38.8,36.6,33.9,36.8,33.6,31.9,96,89,82,30.13,29.96,8,2,12,0.06
2013-1-14,39.6,37.2,34.5,37.0,33.9,30.5,95,88,80,29.96,29.73,9,2,18,0.05
2013-1-15,40.1,34.9,30.1,36.6,32.0,26.8,94,89,81,29.91,29.81,8,2,12,0.01
2013-1-16,37.5,33.1,30.3,29.9,28.1,26.6,89,82,68,29.97,29.84,5,2,7,0.00
2013-1-17,36.5,34.9,33.5,30.1,27.8,25.1,83,75,65,29.99,29.82,12,5,20,0.00
2013-1-18,35.7,34.4,32.5,32.2,28.5,25.1,95,79,69,29.82,29.57,16,11,28,0.00
2013-1-19,39.3,36.2,34.9,34.0,32.3,30.2,92,86,78,29.73,29.59,15,9,27,0.01
2013-1-20,36.9,36.2,35.4,31.9,29.9,27.0,86,78,70,29.71,29.54,15,10,23,0.00
2013-1-21,37.2,35.9,34.5,34.2,32.9,29.5,94,89,74,29.54,29.49,22,15,36,0.13
2013-1-22,37.7,36.7,35.3,34.7,33.7,32.1,93,89,83,29.84,29.53,17,8,30,0.00
2013-1-23,37.7,35.9,34.9,33.7,32.5,31.1,93,87,80,29.95,29.84,7,3,12,0.00
2013-1-24,38.0,36.1,34.4,34.6,31.8,28.7,94,84,72,30.06,29.95,6,2,10,0.00
2013-1-25,38.5,36.5,34.3,35.5,32.3,29.0,95,85,74,29.96,29.39,7,3,14,0.33
2013-1-26,47.0,40.3,34.7,43.0,36.5,33.3,95,86,80,29.55,28.96,16,7,30,0.12
2013-1-27,49.3,42.5,37.2,46.0,39.2,35.3,95,88,79,29.18,28.76,21,12,39,0.04
2013-1-28,47.3,42.7,39.3,43.9,38.6,35.5,94,86,77,29.33,28.88,18,13,37,0.11
2013-1-29,50.5,46.4,43.1,49.4,42.1,37.6,97,85,67,29.33,28.94,23,13,43,0.19
2013-1-30,45.9,43.8,39.2,39.3,37.7,34.4,93,79,64,29.62,29.10,26,16,44,0.04
2013-1-31,45.6,42.1,38.6,41.2,38.5,36.2,95,87,80,29.63,29.21,26,10,46,0.09
2013-2-1,42.7,39.7,34.8,39.9,35.7,29.9,95,86,75,29.81,29.34,14,7,26,0.07
2013-2-2,42.1,37.1,33.6,33.2,29.7,25.5,85,75,52,30.17,29.82,7,4,15,0.00
2013-2-3,49.7,45.6,36.4,46.0,40.8,33.2,92,84,73,30.01,29.44,24,14,38,0.01
2013-2-4,49.6,39.5,32.3,46.8,35.1,30.0,94,84,69,29.53,29.31,26,16,50,0.02
2013-2-5,45.1,39.0,32.4,39.0,34.3,30.6,96,84,72,29.55,29.04,18,10,31,0.00
2013-2-6,41.7,39.3,36.8,34.5,30.0,27.0,77,69,62,30.12,29.57,17,7,33,0.00
2013-2-7,39.7,37.5,34.9,34.2,31.9,27.4,90,80,63,30.12,30.00,7,2,15,0.01
2013-2-8,43.9,39.8,34.9,38.2,34.8,32.8,95,83,66,30.16,30.06,9,4,15,0.05
2013-2-9,40.3,39.3,38.1,38.9,37.3,35.2,96,93,85,30.12,29.81,7,3,13,0.06
2013-2-10,40.1,38.6,36.9,37.1,35.0,32.5,90,87,81,29.81,29.42,15,9,25,0.03
2013-2-11,40.9,38.7,37.5,36.1,32.5,29.0,90,78,69,29.95,29.50,15,9,24,0.02
2013-2-12,38.3,37.6,36.3,32.2,30.8,29.5,82,76,72,30.09,29.95,12,6,18,0.00
2013-2-13,44.7,36.9,32.3,42.5,33.5,28.1,94,88,75,30.08,29.50,18,5,30,0.57
2013-2-14,47.9,45.1,43.6,42.2,41.1,40.1,93,86,77,29.78,29.53,16,9,26,0.01
2013-2-15,49.6,44.2,39.2,41.1,39.5,36.8,91,83,69,30.11,29.79,13,5,20,0.00
2013-2-16,48.0,43.2,38.5,45.2,39.8,35.7,92,88,82,30.12,30.09,7,1,12,0.00
2013-2-17,49.6,44.3,37.3,42.1,39.4,34.4,92,83,66,30.11,30.05,3,1,7,0.00
2013-2-18,47.4,37.7,32.1,39.5,34.7,30.9,96,89,72,30.12,30.08,3,0,6,0.01
2013-2-19,41.3,37.4,31.4,38.9,34.7,29.1,95,90,82,30.15,30.10,7,3,13,0.00
2013-2-20,42.0,39.8,35.4,39.9,35.8,29.1,96,86,77,30.32,30.15,13,6,18,0.00
2013-2-21,37.7,35.9,33.8,29.5,27.8,25.8,79,72,66,30.34,30.29,10,6,18,0.00
2013-2-22,38.0,35.6,34.4,30.6,26.4,23.8,79,69,64,30.33,30.28,7,2,14,0.00
2013-2-23,39.9,36.1,33.4,34.2,29.2,26.1,89,76,61,30.39,30.27,8,2,15,0.02
2013-2-24,42.1,37.3,34.7,37.2,34.3,32.0,93,89,80,30.49,30.39,14,2,18,0.04
2013-2-25,42.0,37.5,32.8,38.7,34.9,31.3,94,90,84,30.64,30.48,7,3,12,0.08
2013-2-26,42.7,38.2,34.0,39.6,36.2,32.6,96,92,87,30.70,30.64,8,4,13,0.02
2013-2-27,48.9,37.7,31.2,41.1,35.4,30.4,97,92,73,30.69,30.58,6,2,10,0.02
2013-2-28,45.0,38.4,32.3,42.7,36.5,31.5,97,93,86,30.58,30.50,7,2,9,0.01
2013-3-1,45.1,42.0,37.1,39.4,35.9,33.5,88,79,67,30.55,30.43,7,2,12,0.00
2013-3-2,53.9,44.2,34.4,43.3,38.8,32.6,94,82,67,30.42,30.25,9,3,14,0.00
2013-3-3,48.3,44.9,42.5,42.0,40.0,37.3,93,83,72,30.25,30.09,6,1,10,0.00
2013-3-4,44.5,42.3,39.2,37.5,36.3,34.4,86,79,68,30.09,29.77,8,2,12,0.00
2013-3-5,47.8,41.2,36.9,38.0,36.1,34.4,91,83,66,29.73,29.65,8,4,12,0.00
2013-3-6,41.5,40.3,38.7,38.9,37.1,35.3,94,88,85,29.73,29.67,13,7,21,0.00
2013-3-7,42.5,41.5,40.6,41.2,39.7,38.1,96,93,89,29.67,29.57,17,11,30,0.13
2013-3-8,41.1,39.7,38.7,38.5,37.8,37.2,95,93,88,29.73,29.59,17,13,29,0.02
2013-3-9,39.7,38.5,37.6,37.8,34.6,28.3,96,86,68,29.92,29.73,18,13,31,0.08
2013-3-10,38.1,34.1,29.4,32.0,28.4,24.6,95,80,59,30.12,29.92,17,9,35,0.01
2013-3-11,34.7,29.7,25.4,29.0,23.5,20.4,91,78,58,30.15,30.11,15,6,26,0.00
2013-3-12,44.1,35.1,27.3,31.8,26.7,20.6,82,72,59,30.13,29.90,9,4,17,0.00
2013-3-13,43.5,37.3,33.2,29.3,26.8,23.7,78,66,49,29.99,29.87,8,3,17,0.00
2013-3-14,43.1,37.4,30.6,38.9,33.1,26.1,90,84,74,29.98,29.59,8,4,17,0.02
2013-3-15,46.5,42.3,38.0,40.1,37.1,34.0,87,82,69,29.58,29.36,13,6,21,0.00
2013-3-16,38.0,36.5,35.1,36.4,34.5,32.9,95,92,86,29.39,29.19,8,3,16,0.18
2013-3-17,41.7,38.4,34.3,39.2,36.1,32.5,96,92,81,29.27,29.13,12,6,26,0.30
2013-3-18,40.4,37.4,32.7,38.8,35.3,30.9,94,92,86,29.53,29.27,17,12,32,0.02
2013-3-19,36.3,34.2,33.0,35.2,32.7,30.8,98,94,88,29.77,29.54,16,11,31,0.09
2013-3-20,38.6,36.5,34.5,35.4,32.3,30.2,97,85,76,30.07,29.68,12,7,23,0.00
2013-3-21,39.1,35.7,31.2,32.4,30.6,29.4,93,82,69,30.11,30.04,17,8,31,0.00
2013-3-22,37.1,35.9,34.1,32.4,30.9,29.5,89,82,77,30.05,29.99,21,16,38,0.07
2013-3-23,35.3,35.0,34.5,31.5,27.9,26.1,87,75,70,30.21,30.05,21,15,38,0.09
2013-3-24,36.3,35.3,34.3,29.1,27.4,25.4,77,73,66,30.31,30.20,20,15,38,0.02
2013-3-25,36.5,35.7,34.8,30.3,28.4,25.3,83,75,65,30.32,30.27,15,12,27,0.00
2013-3-26,37.2,35.2,32.3,31.5,28.9,25.9,93,78,67,30.27,30.17,16,8,26,0.03
2013-3-27,39.5,34.4,31.4,33.0,29.9,26.5,93,84,66,30.17,30.10,15,6,23,0.06
2013-3-28,40.4,36.4,32.7,32.6,30.2,26.9,95,79,59,30.12,30.06,13,6,24,0.01
2013-3-29,40.4,36.2,33.0,34.3,29.8,27.5,93,78,60,30.05,29.95,12,6,20,0.01
2013-3-30,40.0,35.0,30.0,33.0,29.3,26.3,88,80,67,30.03,29.97,8,2,12,0.01
2013-3-31,40.0,34.6,29.2,31.1,27.9,25.6,91,77,56,30.03,30.00,9,4,17,0.00
2013-4-1,41.3,36.9,31.9,28.8,27.3,24.1,81,68,58,30.09,30.02,13,7,24,0.00
2013-4-2,44.0,38.2,33.2,35.9,30.3,26.5,87,74,50,30.25,30.10,12,4,17,0.00
2013-4-3,42.8,38.2,31.8,35.8,31.8,28.6,89,78,66,30.32,30.25,9,4,14,0.00
2013-4-4,43.6,40.1,36.3,37.6,34.6,30.1,87,81,66,30.29,30.23,12,6,20,0.00
2013-4-5,42.9,39.6,36.6,36.0,31.4,28.2,90,73,57,30.27,30.22,9,4,20,0.00
2013-4-6,49.2,40.2,31.2,36.7,31.9,27.8,88,73,51,30.27,30.18,10,4,17,0.00
2013-4-7,40.7,38.7,37.1,37.1,34.9,33.4,91,86,77,30.19,30.01,14,5,21,0.00
2013-4-8,43.3,39.0,37.0,34.5,32.1,28.3,88,77,60,30.00,29.76,17,9,25,0.00
2013-4-9,42.1,39.2,36.7,36.1,31.4,26.8,87,74,63,29.76,29.69,15,9,23,0.01
2013-4-10,42.2,39.7,37.4,38.9,36.5,33.9,91,88,83,29.72,29.61,10,6,18,0.05
2013-4-11,43.3,40.5,38.2,37.9,36.3,33.6,90,85,78,29.61,29.43,10,6,18,0.00
2013-4-12,44.1,40.4,37.3,38.7,36.5,33.7,93,86,79,29.70,29.40,10,6,17,0.02
2013-4-13,53.3,47.2,39.9,46.6,40.8,37.8,93,79,62,29.75,29.46,12,5,22,0.02
2013-4-14,55.7,52.7,50.2,50.1,47.7,45.8,94,83,71,29.48,29.38,23,16,40,0.11
2013-4-15,55.3,50.9,48.6,48.4,45.4,42.9,87,81,65,29.73,29.44,25,13,39,0.13
2013-4-16,52.3,49.4,45.7,44.7,41.4,36.0,92,74,57,29.80,29.36,28,15,49,0.47
2013-4-17,54.3,47.3,41.6,49.4,43.1,37.3,95,85,73,29.83,29.12,22,10,38,0.25
2013-4-18,51.3,48.6,45.2,46.5,41.9,38.8,96,78,65,29.89,29.08,26,15,43,0.05
2013-4-19,54.6,46.5,41.3,40.0,36.7,32.2,85,69,49,30.41,29.90,10,3,20,0.00
2013-4-20,53.8,48.2,41.2,42.7,39.3,35.8,85,72,54,30.42,30.13,16,8,26,0.00
2013-4-21,52.6,47.3,43.8,43.9,41.1,38.0,89,79,58,30.12,29.83,16,10,26,0.01
2013-4-22,54.0,47.2,42.2,47.5,41.8,38.6,87,82,68,29.83,29.56,23,12,38,0.04
2013-4-23,53.5,49.5,46.2,43.3,41.3,38.4,89,74,60,30.03,29.69,21,13,32,0.00
2013-4-24,53.5,49.9,45.0,50.2,40.5,33.5,97,72,47,30.20,29.88,17,8,28,0.35
2013-4-25,50.3,44.7,42.0,40.4,37.8,36.2,89,77,60,30.19,30.00,14,6,26,0.11
2013-4-26,48.5,42.8,39.5,39.6,36.7,34.7,89,79,63,30.02,29.83,16,6,26,0.13
2013-4-27,51.8,44.3,38.9,36.6,32.5,26.0,86,65,38,30.12,29.95,13,5,21,0.00
2013-4-28,51.1,45.8,40.8,42.9,38.8,34.8,90,77,65,29.94,29.58,20,12,36,0.00
2013-4-29,53.4,46.9,41.4,39.2,36.6,31.1,84,69,43,30.07,29.58,24,14,39,0.00
2013-4-30,55.5,47.2,38.7,37.9,33.1,24.2,87,61,30,30.30,30.08,13,5,21,0.00
2013-5-1,53.7,48.1,43.5,43.1,37.8,31.4,85,69,43,30.25,30.08,14,8,26,0.00
2013-5-2,54.0,46.7,37.9,44.4,38.7,34.3,88,74,52,30.26,29.98,15,5,25,0.00
2013-5-3,52.7,50.0,44.0,48.6,45.9,39.5,94,86,80,29.98,29.65,20,10,32,0.11
2013-5-4,50.5,46.3,40.2,43.2,38.7,33.3,86,75,53,29.87,29.70,18,11,34,0.00
2013-5-5,62.0,54.6,49.4,53.3,48.2,43.3,85,79,67,30.02,29.87,14,8,25,0.00
2013-5-6,56.8,53.4,50.1,50.1,48.3,46.4,88,83,78,30.04,29.99,12,5,21,0.00
2013-5-7,60.5,53.2,43.6,50.3,45.3,41.2,92,75,56,30.06,29.87,12,4,17,0.00
2013-5-8,55.9,51.6,48.2,49.8,46.0,40.6,95,81,57,29.87,29.49,14,8,24,0.09
2013-5-9,54.2,49.0,45.2,44.5,42.0,37.8,94,77,55,29.54,29.35,12,5,22,0.10
2013-5-10,55.0,49.0,45.0,47.2,43.8,40.9,94,83,64,29.62,29.36,17,7,26,0.09
2013-5-11,50.2,47.4,44.0,46.6,42.6,38.9,89,83,74,29.72,29.47,18,10,31,0.02
2013-5-12,52.1,48.5,43.8,48.4,43.4,39.0,92,83,71,29.77,29.55,21,9,37,0.03
2013-5-13,49.1,43.6,35.6,40.5,38.2,33.9,95,81,69,29.60,29.41,24,12,41,0.18
2013-5-14,51.6,46.5,42.0,43.6,40.0,37.9,91,78,64,29.41,29.35,17,10,30,0.06
2013-5-15,51.1,45.0,39.6,44.1,40.1,36.4,90,83,68,29.41,29.29,14,4,25,0.29
2013-5-16,53.6,47.0,40.4,43.3,39.9,35.9,91,77,53,29.70,29.38,10,6,20,0.00
2013-5-17,57.2,49.2,41.7,43.3,41.3,38.5,93,76,54,29.86,29.70,8,3,14,0.01
2013-5-18,55.6,51.2,48.1,53.5,48.3,42.8,96,90,73,29.84,29.71,15,4,31,0.53
2013-5-19,56.3,49.7,47.2,55.5,49.0,46.4,98,97,95,29.97,29.81,9,3,13,0.03
2013-5-20,69.5,58.9,51.3,62.0,55.6,49.3,97,89,72,30.02,29.90,8,3,20,0.00
2013-5-21,58.2,53.2,48.8,50.0,47.2,44.0,95,80,69,30.08,30.01,10,3,14,0.00
2013-5-22,56.9,50.8,43.5,45.4,38.2,31.3,85,64,38,30.08,29.99,16,7,32,0.00
2013-5-23,48.9,45.2,41.4,36.9,33.9,32.0,74,65,53,30.01,29.90,16,8,31,0.00
2013-5-24,53.4,48.3,43.7,44.9,39.8,33.8,89,73,58,30.21,29.90,15,7,26,0.00
2013-5-25,62.8,52.8,40.9,44.2,40.1,35.6,93,66,37,30.21,30.10,10,5,18,0.00
2013-5-26,59.6,53.4,45.5,48.7,44.9,39.9,83,73,64,30.11,29.76,10,5,20,0.00
2013-5-27,54.8,51.8,49.2,46.3,44.9,41.9,84,77,71,29.75,29.45,18,10,31,0.00
2013-5-28,55.0,51.4,47.0,47.1,45.3,42.4,89,80,69,29.79,29.52,12,5,24,0.00
2013-5-29,63.9,54.7,44.7,53.9,47.3,41.6,90,76,65,29.91,29.80,7,2,17,0.00
2013-5-30,62.6,57.4,52.5,51.0,47.4,42.4,86,70,54,30.07,29.89,9,4,20,0.00
2013-5-31,65.4,56.2,48.9,53.6,47.9,40.8,93,75,57,30.16,30.05,14,7,24,0.00
2013-6-1,58.1,52.5,46.2,47.9,42.4,38.3,85,69,49,30.28,30.16,13,7,26,0.02
2013-6-2,64.2,53.9,43.8,46.7,42.2,39.0,88,66,43,30.43,30.29,9,5,16,0.00
2013-6-3,68.0,58.0,48.3,55.0,50.1,44.7,89,76,59,30.49,30.43,6,3,12,0.00
2013-6-4,63.8,57.4,51.6,51.3,49.2,47.4,90,75,57,30.50,30.32,12,5,18,0.00
2013-6-5,55.9,51.7,48.8,51.0,48.5,46.2,97,89,80,30.32,30.17,12,6,20,0.00
2013-6-6,61.6,55.0,49.7,51.7,49.1,46.1,92,81,64,30.25,30.18,8,4,15,0.00
2013-6-7,57.8,53.0,48.2,51.1,48.3,45.4,91,84,72,30.34,30.26,10,4,20,0.00
2013-6-8,63.4,54.8,46.8,51.5,47.9,42.8,88,78,61,30.32,30.13,14,6,21,0.00
2013-6-9,58.9,53.6,49.8,51.3,49.0,46.9,92,85,76,30.14,30.01,13,7,18,0.01
2013-6-10,58.3,53.1,49.8,50.6,48.2,46.1,91,84,74,30.03,29.92,10,6,17,0.00
2013-6-11,59.9,54.1,47.7,53.9,50.1,45.6,93,86,70,29.92,29.70,8,5,14,0.05
2013-6-12,62.9,57.3,52.8,55.2,51.8,48.3,94,82,69,29.69,29.57,14,5,20,0.15
2013-6-13,60.9,55.0,48.9,48.3,45.6,41.8,91,72,52,29.76,29.55,16,8,27,0.00
2013-6-14,63.9,56.3,49.8,51.4,47.9,45.7,88,74,61,29.80,29.60,15,8,25,0.11
2013-6-15,55.1,52.5,49.3,50.7,46.8,42.7,93,81,68,29.58,29.42,15,8,26,0.05
2013-6-16,65.2,55.9,49.2,51.9,49.0,44.9,94,79,58,29.98,29.56,9,5,15,0.00
2013-6-17,59.9,55.8,51.8,53.9,51.8,49.3,92,86,77,30.07,29.98,10,4,16,0.00
2013-6-18,62.8,57.8,54.6,55.2,53.2,51.6,91,85,74,30.03,29.91,9,3,16,0.00
2013-6-19,65.3,58.6,53.2,51.4,48.4,44.9,88,70,50,30.02,29.95,17,7,28,0.00
2013-6-20,69.9,60.1,53.1,57.2,51.5,47.0,85,74,56,30.01,29.78,8,4,18,0.00
2013-6-21,65.2,59.9,55.2,56.2,53.2,46.4,92,79,53,29.79,29.61,10,4,17,0.00
2013-6-22,59.8,55.7,52.5,53.8,50.6,47.9,91,83,72,29.60,29.29,13,5,26,0.25
2013-6-23,62.5,56.5,51.4,53.6,49.7,45.6,93,79,62,29.90,29.35,15,7,27,0.04
2013-6-24,59.5,55.0,50.6,45.8,44.0,41.8,82,67,53,30.24,29.92,10,5,17,0.00
2013-6-25,61.0,55.9,47.1,50.2,47.0,42.8,87,73,58,30.37,30.24,9,4,18,0.00
2013-6-26,64.7,57.3,50.9,50.3,47.7,44.3,90,72,50,30.41,30.37,9,4,16,0.00
2013-6-27,60.0,55.2,51.4,56.5,51.0,45.6,94,86,79,30.40,30.11,9,6,16,0.03
2013-6-28,63.6,57.9,53.0,56.1,52.6,43.8,94,83,64,30.11,29.88,17,11,30,0.13
2013-6-29,59.4,55.4,51.2,54.4,48.7,44.0,90,79,64,30.12,30.04,13,8,22,0.00
2013-6-30,63.7,58.4,53.3,56.3,52.3,47.4,91,80,69,30.08,29.83,18,10,31,0.02
2013-7-1,60.6,55.4,50.3,48.1,45.5,41.2,90,70,51,29.88,29.81,14,10,27,0.00
2013-7-2,56.9,54.6,51.5,53.8,49.5,44.8,91,83,74,29.87,29.43,14,4,26,0.19
2013-7-3,63.4,58.8,54.9,55.0,53.2,51.2,95,82,68,29.80,29.44,13,5,18,0.00
2013-7-4,62.8,59.6,55.1,58.9,52.6,48.0,95,78,63,30.12,29.70,21,10,35,0.25
2013-7-5,65.9,59.5,54.2,54.9,51.7,47.8,90,76,63,30.35,30.12,13,7,25,0.00
2013-7-6,72.7,62.8,52.6,56.7,52.6,49.1,89,71,48,30.39,30.28,12,5,20,0.00
2013-7-7,73.9,63.7,55.1,57.5,55.9,53.1,93,77,49,30.60,30.40,9,5,15,0.00
2013-7-8,67.7,57.4,53.9,59.8,54.8,52.8,97,91,72,30.62,30.47,8,3,13,0.00
2013-7-9,80.3,68.6,57.2,62.1,59.3,54.6,91,74,52,30.46,30.31,13,5,24,0.00
2013-7-10,60.1,57.2,55.4,55.1,53.8,52.2,93,88,82,30.41,30.34,12,7,18,0.00
2013-7-11,65.8,58.4,53.9,60.2,55.0,52.3,95,89,81,30.36,30.24,9,4,15,0.00
2013-7-12,80.5,69.5,56.4,64.4,59.4,54.1,94,73,48,30.26,30.17,12,5,20,0.00
2013-7-13,72.5,62.6,56.7,60.2,57.5,53.8,91,84,64,30.31,30.21,13,6,20,0.00
2013-7-14,69.2,62.0,55.6,54.9,53.0,50.3,95,74,54,30.30,30.15,13,6,22,0.00
2013-7-15,67.7,61.4,56.0,56.8,53.9,50.5,86,77,68,30.18,30.15,14,9,24,0.00
2013-7-16,71.5,66.2,61.3,60.6,58.1,55.5,88,76,60,30.22,30.16,12,7,20,0.00
2013-7-17,73.2,66.5,57.0,58.9,56.4,54.1,90,71,54,30.31,30.22,12,5,21,0.00
2013-7-18,80.4,70.5,61.1,64.8,61.0,57.6,89,73,55,30.35,30.30,12,6,20,0.00
2013-7-19,70.6,65.6,60.0,59.4,57.4,56.1,90,75,62,30.38,30.33,12,5,18,0.00
2013-7-20,66.1,60.9,56.8,59.0,56.6,54.9,94,86,77,30.36,30.27,12,5,17,0.00
2013-7-21,63.5,59.5,57.5,57.3,55.4,53.4,91,86,77,30.29,30.14,15,7,27,0.00
2013-7-22,63.7,60.1,58.0,59.2,57.6,56.6,95,91,85,30.14,29.99,12,7,20,0.00
2013-7-23,68.9,62.1,59.7,64.9,60.3,57.9,97,94,87,29.99,29.84,9,5,18,1.19
2013-7-24,68.9,64.1,59.3,62.9,60.6,58.7,98,89,75,29.89,29.85,9,3,13,0.00
2013-7-25,64.3,61.0,59.3,62.5,59.6,57.9,97,95,91,29.88,29.79,8,2,15,0.36
2013-7-26,71.3,63.4,57.6,61.4,58.9,54.9,97,86,67,29.83,29.80,9,3,18,0.12
2013-7-27,69.3,62.2,56.8,60.3,57.6,54.2,92,85,68,29.83,29.65,9,3,16,0.02
2013-7-28,63.5,60.5,57.4,60.3,57.8,55.4,95,91,83,29.65,29.51,7,3,14,1.22
2013-7-29,64.4,60.1,56.1,60.8,57.3,54.4,94,91,83,29.71,29.61,8,3,17,0.20
2013-7-30,68.2,60.4,54.5,56.1,53.6,49.7,93,79,52,29.77,29.72,13,5,22,0.02
2013-7-31,66.9,60.1,53.8,56.7,53.2,50.0,94,79,55,29.86,29.76,8,4,15,0.04
2013-8-1,70.2,63.1,57.9,63.1,60.2,56.6,97,90,78,29.76,29.60,14,5,23,0.39
2013-8-2,69.9,65.9,61.4,61.8,57.4,53.0,94,75,57,29.61,29.52,18,8,33,0.00
2013-8-3,66.7,61.3,58.0,55.8,52.7,50.0,86,74,55,29.83,29.54,21,10,33,0.00
2013-8-4,68.2,61.5,55.8,54.9,52.9,49.7,90,74,57,29.88,29.83,12,6,22,0.02
2013-8-5,63.3,58.3,54.7,56.7,53.6,50.7,91,85,68,29.86,29.73,10,3,17,0.00
2013-8-6,65.2,58.3,50.2,53.0,49.9,47.2,90,75,60,29.97,29.84,9,4,15,0.00
2013-8-7,67.0,59.4,52.9,55.2,52.8,50.3,92,79,62,30.05,29.95,6,2,9,0.01
2013-8-8,67.7,59.9,55.0,57.6,55.1,52.4,95,85,64,30.05,29.91,6,2,13,0.10
2013-8-9,65.6,60.6,56.7,57.4,53.5,49.0,92,78,63,30.09,29.85,17,7,25,0.00
2013-8-10,62.4,58.0,53.2,52.4,50.3,48.6,85,76,63,30.10,29.97,10,6,18,0.00
2013-8-11,61.4,57.0,53.4,52.7,50.5,48.7,92,80,65,29.97,29.83,16,9,28,0.05
2013-8-12,65.3,58.7,53.1,52.3,49.8,47.4,90,73,56,30.00,29.82,14,8,26,0.00
2013-8-13,63.9,57.6,50.2,50.6,48.4,45.7,89,72,52,30.12,30.00,10,6,17,0.00
2013-8-14,68.7,60.7,53.2,58.5,54.4,49.1,92,80,64,30.12,29.92,10,3,17,0.03
2013-8-15,67.5,63.4,60.1,61.8,60.1,58.4,95,89,81,29.91,29.72,16,4,25,0.13
2013-8-16,66.5,60.6,54.5,60.4,54.6,51.6,95,81,65,29.85,29.72,13,6,25,0.00
2013-8-17,69.6,61.1,55.2,60.8,54.9,50.3,91,80,63,29.83,29.37,20,9,31,0.04
2013-8-18,61.2,57.4,54.3,51.4,50.1,48.8,86,77,65,29.78,29.43,17,10,35,0.00
2013-8-19,63.3,58.1,53.2,53.2,50.8,48.3,86,77,58,30.15,29.78,17,8,30,0.00
2013-8-20,65.9,59.3,55.5,57.0,53.9,50.7,91,83,67,30.23,30.14,9,4,16,0.05
2013-8-21,69.4,63.1,58.8,59.7,57.9,55.4,91,83,70,30.13,30.02,8,3,16,0.02
2013-8-22,61.3,58.1,56.3,59.0,56.5,54.7,97,94,87,30.12,30.01,7,3,13,0.00
2013-8-23,66.2,60.7,55.0,60.9,57.4,53.6,96,89,78,30.00,29.86,6,2,12,0.00
2013-8-24,66.0,60.3,56.9,56.8,55.1,53.2,95,84,64,29.96,29.88,6,2,12,0.00
2013-8-25,64.5,58.7,54.5,59.4,55.4,51.4,96,89,82,30.16,29.96,7,2,12,0.00
2013-8-26,64.9,58.8,53.5,60.7,56.0,52.7,98,91,80,30.17,30.08,9,2,16,0.01
2013-8-27,68.8,60.2,54.7,59.9,55.7,52.1,93,85,73,30.20,30.06,9,5,17,0.00
2013-8-28,64.7,58.0,54.1,57.0,52.4,47.4,94,82,69,30.22,30.07,10,6,18,0.00
2013-8-29,64.0,59.4,53.5,57.2,54.5,47.4,90,84,75,30.07,29.98,12,7,25,0.00
2013-8-30,65.2,59.6,52.8,60.0,54.4,44.4,91,83,66,30.05,29.81,23,9,36,0.00
2013-8-31,61.0,55.6,51.1,48.6,45.0,38.7,81,68,46,30.25,30.05,18,10,35,0.00
2013-9-1,58.8,56.7,54.4,55.5,51.2,48.5,90,82,75,30.25,30.07,23,15,37,0.01
2013-9-2,65.9,62.2,58.7,59.3,57.7,55.5,90,85,79,30.22,30.06,21,14,37,0.00
2013-9-3,70.1,63.2,57.1,59.3,57.2,53.3,94,81,62,30.24,30.17,15,7,23,0.00
2013-9-4,69.2,61.3,55.9,54.6,52.4,49.5,90,74,54,30.17,29.90,13,6,20,0.00
2013-9-5,63.5,57.8,51.1,53.2,48.1,41.4,90,72,45,29.90,29.85,10,4,17,0.00
2013-9-6,57.5,52.1,47.2,48.8,47.1,44.1,93,83,65,29.92,29.87,9,3,20,0.38
2013-9-7,59.1,53.8,47.0,53.7,48.5,45.4,94,83,71,29.92,29.73,12,6,22,0.26
2013-9-8,57.4,53.1,46.1,50.2,46.7,42.7,89,79,70,29.98,29.92,10,4,16,0.00
2013-9-9,62.8,53.6,49.4,52.7,48.9,46.2,94,85,60,30.15,29.94,9,2,14,0.00
2013-9-10,65.1,57.5,51.4,50.2,47.7,45.8,85,71,55,30.22,30.15,13,4,24,0.00
2013-9-11,59.8,55.9,51.4,56.7,52.8,48.9,95,90,81,30.22,30.06,7,3,13,0.09
2013-9-12,65.8,59.6,55.4,59.4,55.8,52.4,94,88,70,30.07,29.85,13,6,22,0.05
2013-9-13,56.6,52.5,49.0,52.8,48.3,43.4,96,86,68,30.09,29.95,9,2,16,0.24
2013-9-14,61.1,51.6,44.3,47.8,45.2,42.4,94,80,54,30.05,30.00,8,5,15,0.00
2013-9-15,58.6,50.8,44.4,56.7,46.0,40.0,96,84,63,29.62,29.17,24,13,43,0.09
2013-9-16,55.0,49.9,44.0,45.7,43.5,39.6,86,79,67,29.31,29.24,20,12,36,0.00
2013-9-17,56.3,51.0,46.5,46.3,44.4,42.2,85,78,66,29.37,29.26,17,10,30,0.00
2013-9-18,56.6,49.9,43.1,46.1,43.8,40.7,92,80,62,29.71,29.37,16,8,30,0.00
2013-9-19,52.1,49.3,47.2,50.6,47.1,44.5,96,92,87,29.76,29.51,10,3,18,0.28
2013-9-20,59.7,53.7,46.3,50.0,47.8,44.1,94,81,63,30.02,29.76,13,5,25,0.00
2013-9-21,63.8,58.0,53.4,59.0,53.4,48.7,90,84,80,30.08,30.00,13,5,20,0.00
2013-9-22,67.6,63.0,58.7,58.9,57.2,55.8,90,82,67,30.26,30.07,17,10,26,0.00
2013-9-23,65.6,59.2,53.6,58.9,56.1,52.5,97,90,78,30.26,30.10,6,2,10,0.00
2013-9-24,59.5,57.0,55.4,56.9,55.3,54.0,97,94,90,30.10,29.95,7,2,14,0.01
2013-9-25,55.7,53.6,48.1,54.5,50.6,44.5,96,90,79,30.05,29.90,12,5,21,0.00
2013-9-26,56.3,51.9,46.8,51.3,47.7,43.6,91,86,74,30.11,30.05,8,4,14,0.00
2013-9-27,57.0,54.5,52.4,54.1,52.3,50.6,95,92,88,30.06,29.92,3,2,7,0.02
2013-9-28,62.7,56.2,51.4,55.4,52.7,50.0,97,88,71,29.92,29.85,9,3,15,0.01
2013-9-29,60.4,55.7,52.8,52.5,50.1,47.8,89,82,70,29.93,29.90,12,8,22,0.00
2013-9-30,58.2,55.3,53.5,51.4,50.2,48.9,89,83,74,29.91,29.82,13,9,22,0.00
2013-10-1,57.7,54.5,52.5,51.1,48.6,46.2,87,81,73,29.91,29.84,13,8,22,0.00
2013-10-2,58.3,56.1,54.5,54.9,52.2,48.8,95,87,80,29.86,29.76,10,7,20,0.10
2013-10-3,64.7,58.8,55.3,59.9,56.8,54.2,97,93,84,29.77,29.53,10,6,16,0.52
2013-10-4,61.3,57.9,55.4,58.9,56.0,52.5,98,93,83,29.79,29.52,9,4,18,0.11
2013-10-5,60.5,56.6,53.5,53.5,51.7,50.3,92,84,71,30.07,29.80,10,6,20,0.00
2013-10-6,62.3,59.7,56.7,58.4,55.9,52.9,92,87,78,30.07,30.01,10,6,20,0.00
2013-10-7,66.1,62.2,60.0,59.0,57.5,56.2,92,85,74,30.05,29.97,15,8,28,0.01
2013-10-8,60.4,56.9,52.5,58.1,52.7,46.9,94,86,76,30.13,29.96,16,10,29,0.02
2013-10-9,52.7,49.4,44.9,47.7,37.0,33.5,83,62,53,30.14,29.90,22,13,37,0.00
2013-10-10,53.3,46.8,43.2,38.9,36.5,33.6,77,68,54,30.43,30.14,12,4,22,0.00
2013-10-11,51.6,48.1,43.4,43.6,40.8,35.4,80,75,73,30.50,30.43,9,5,20,0.00
2013-10-12,55.1,50.6,46.6,48.3,45.5,42.3,91,83,74,30.47,30.27,15,6,23,0.00
2013-10-13,55.4,50.4,47.5,50.4,46.7,43.0,95,87,71,30.27,30.03,13,7,23,0.09
2013-10-14,53.2,51.1,49.0,50.5,48.4,46.6,94,90,83,30.03,29.92,9,5,17,0.05
2013-10-15,53.1,50.1,47.4,48.6,47.1,45.6,94,89,83,29.99,29.89,8,3,16,0.00
2013-10-16,52.7,49.6,46.0,49.9,46.9,44.1,95,90,85,29.98,29.57,13,6,21,0.88
2013-10-17,49.9,48.4,46.7,48.5,47.0,45.4,96,95,91,29.96,29.62,8,3,13,0.30
2013-10-18,53.7,51.0,49.3,52.3,48.7,46.4,96,92,87,30.00,29.70,13,7,18,0.21
2013-10-19,54.9,53.6,52.4,54.1,52.3,51.0,97,95,91,29.69,29.45,12,5,18,0.89
2013-10-20,56.5,53.7,51.1,53.5,51.7,49.7,96,93,87,29.47,29.41,7,3,13,0.12
2013-10-21,55.2,53.5,52.2,52.8,51.0,49.4,98,91,83,29.51,29.25,13,4,20,0.28
2013-10-22,59.2,57.3,53.4,57.1,54.3,52.7,98,90,84,29.26,29.08,10,3,16,0.55
2013-10-23,57.0,52.9,47.5,53.8,48.6,41.9,95,86,72,29.53,28.98,22,8,35,0.17
2013-10-24,54.6,50.2,47.9,47.2,45.1,43.1,88,83,74,29.89,29.53,15,7,23,0.00
2013-10-25,60.5,54.2,50.3,55.2,50.7,45.6,95,88,79,29.84,29.29,13,7,21,0.19
2013-10-26,55.9,52.8,48.1,52.8,48.3,44.4,91,85,75,29.43,29.13,12,7,24,0.05
2013-10-27,53.9,50.5,47.7,49.0,46.4,44.3,94,86,76,29.16,28.83,21,10,37,0.23
2013-10-28,53.3,49.3,46.9,47.5,45.5,43.2,93,87,76,29.31,28.87,17,9,29,0.00
2013-10-29,51.8,47.6,44.7,43.7,41.9,40.1,87,81,69,29.84,29.31,16,10,30,0.00
2013-10-30,54.4,48.2,41.6,50.7,44.2,38.8,93,86,76,29.90,29.58,14,8,28,0.02
2013-10-31,54.3,48.5,44.7,45.8,43.7,41.8,91,83,72,29.79,29.58,17,9,29,0.04
2013-11-1,51.4,47.1,43.8,43.7,42.0,40.5,90,82,73,29.58,29.54,16,8,30,0.00
2013-11-2,47.9,43.7,39.1,45.1,40.8,37.0,94,89,85,29.54,28.83,16,6,26,0.10
2013-11-3,49.1,44.8,37.7,40.4,38.3,35.0,90,78,62,29.26,28.91,21,12,35,0.00
2013-11-4,48.7,41.0,35.8,39.0,36.2,33.2,92,84,67,29.35,29.19,9,5,17,0.00
2013-11-5,42.3,37.6,32.4,39.7,35.6,30.6,96,93,83,29.32,29.16,13,3,23,0.02
2013-11-6,46.2,43.0,40.2,42.6,39.7,37.3,91,88,84,29.35,29.22,14,6,21,0.01
2013-11-7,48.5,44.6,40.5,43.8,40.0,37.1,93,84,72,29.45,29.35,21,10,32,0.09
2013-11-8,49.0,44.0,39.0,43.4,40.4,36.6,92,87,75,29.52,29.44,13,6,29,0.03
2013-11-9,42.7,39.2,35.5,39.1,36.4,33.0,93,90,84,29.63,29.49,9,5,17,0.00
2013-11-10,48.9,40.5,35.1,41.8,35.8,32.1,91,84,69,30.10,29.63,8,3,14,0.00
2013-11-11,55.0,48.8,41.8,52.4,44.7,36.5,94,86,77,30.01,29.80,12,6,24,0.08
2013-11-12,50.1,46.4,44.7,46.0,41.4,39.7,89,83,70,30.33,30.01,16,10,28,0.02
2013-11-13,50.0,47.2,44.7,45.2,42.3,40.3,89,83,72,30.35,29.76,16,10,30,0.00
2013-11-14,48.3,45.3,40.9,44.2,36.6,32.7,87,72,56,30.45,29.75,18,8,33,0.00
2013-11-15,51.4,48.4,40.9,48.3,44.5,35.7,95,86,81,30.45,30.30,16,10,29,0.00
2013-11-16,53.2,51.0,46.2,49.9,46.9,41.6,92,86,82,30.32,30.18,21,12,37,0.00
2013-11-17,45.8,41.8,38.0,41.8,39.5,36.3,97,92,84,30.34,29.91,5,1,10,0.05
2013-11-18,45.6,41.2,36.4,42.8,37.8,32.7,97,88,67,29.90,29.74,13,6,22,0.01
2013-11-19,43.1,36.8,32.5,40.1,31.2,27.1,92,81,61,30.00,29.55,15,6,29,0.02
2013-11-20,45.2,41.6,39.2,42.0,35.9,31.3,94,80,70,29.79,29.36,20,11,38,0.05
2013-11-21,41.9,38.1,34.4,31.8,30.4,28.2,81,74,65,30.15,29.79,8,3,20,0.00
2013-11-22,38.8,33.8,28.7,32.5,29.7,26.4,91,85,77,30.26,30.14,8,4,12,0.00
2013-11-23,44.4,38.5,34.0,39.2,35.5,31.1,94,89,80,30.42,30.26,8,4,13,0.00
2013-11-24,41.9,38.1,35.2,38.6,35.4,33.6,94,90,82,30.67,30.42,6,1,9,0.00
2013-11-25,39.3,35.2,30.0,36.8,33.4,29.0,97,93,88,30.71,30.66,7,3,12,0.00
2013-11-26,51.1,46.2,37.2,48.3,44.1,35.4,96,92,89,30.67,30.47,16,9,29,0.04
2013-11-27,52.8,51.0,50.2,48.5,47.8,46.8,91,89,83,30.47,30.43,13,10,24,0.00
2013-11-28,46.3,42.1,40.2,44.1,40.0,38.6,95,92,88,30.60,30.31,8,2,15,0.00
2013-11-29,48.1,44.9,42.3,45.8,38.9,33.7,94,80,67,30.30,30.05,20,11,35,0.01
2013-11-30,47.9,43.6,38.7,44.8,38.7,32.8,90,83,69,30.37,30.27,14,6,25,0.00
2013-12-1,50.3,46.2,41.3,47.1,43.4,39.7,94,90,83,30.57,30.34,13,3,22,0.00
2013-12-2,47.5,45.4,40.9,44.4,41.8,39.6,95,87,81,30.56,30.30,13,6,25,0.00
2013-12-3,49.7,48.1,42.4,46.3,44.5,39.7,90,87,85,30.30,30.08,12,8,21,0.07
2013-12-4,44.7,41.6,37.7,40.4,37.3,35.0,90,85,78,30.25,30.02,18,10,32,0.00
2013-12-5,49.1,40.5,34.6,44.9,34.5,24.1,91,80,60,30.09,29.37,35,15,70,0.28
2013-12-6,37.4,35.7,34.3,31.2,28.5,26.0,88,75,67,30.31,30.09,9,4,18,0.00
2013-12-7,49.5,40.3,33.6,46.2,38.1,31.3,96,92,85,30.21,29.90,13,5,25,0.03
2013-12-8,54.2,51.2,48.5,51.0,48.3,45.0,93,90,85,29.91,29.82,17,12,30,0.04
2013-12-9,53.5,51.9,49.7,50.9,47.9,44.0,93,86,79,30.17,29.91,15,9,30,0.00
2013-12-10,52.9,50.9,48.9,48.6,46.2,43.3,88,84,77,30.19,30.11,15,8,24,0.00
2013-12-11,52.8,49.7,44.3,49.3,44.6,38.2,88,83,68,30.22,29.99,10,5,21,0.00
2013-12-12,55.8,52.6,48.3,51.9,48.4,38.4,91,86,64,29.99,29.89,12,5,22,0.17
2013-12-13,55.7,51.8,44.2,51.5,47.1,38.5,89,84,77,29.90,29.68,14,7,28,0.01
2013-12-14,52.3,47.2,40.8,49.9,43.0,35.7,96,85,78,29.88,29.40,25,13,41,0.11
2013-12-15,50.0,45.6,42.4,46.6,41.8,36.1,97,87,72,29.83,29.47,25,10,39,0.20
2013-12-16,49.8,42.5,39.6,39.4,37.8,36.9,94,84,75,29.91,29.48,21,10,40,0.03
2013-12-17,46.3,42.7,39.7,39.4,37.1,35.0,87,81,74,30.05,29.72,18,10,32,0.00
2013-12-18,52.2,48.4,44.4,48.3,43.2,36.7,92,82,71,29.72,28.73,24,12,40,0.13
2013-12-19,45.7,40.1,36.0,37.0,34.9,33.3,95,82,73,29.46,28.79,22,12,40,0.18
2013-12-20,52.5,44.8,39.0,49.0,41.1,35.4,95,87,75,29.71,29.31,22,13,43,0.09
2013-12-21,49.7,45.6,40.6,43.6,40.2,36.7,90,81,74,29.46,29.24,21,12,43,0.03
2013-12-22,42.7,39.8,36.7,37.4,35.9,33.8,94,86,80,29.49,29.27,16,10,32,0.00
2013-12-23,50.7,42.8,37.3,47.6,39.0,33.4,97,86,79,29.49,28.28,17,9,32,0.07
2013-12-24,49.9,42.4,39.9,45.4,35.4,31.4,88,76,63,28.42,28.21,26,18,45,0.35
2013-12-25,45.7,42.6,40.0,39.6,37.2,35.3,94,81,71,29.04,28.42,23,13,41,0.14
2013-12-26,43.8,40.6,38.4,38.0,36.2,34.8,87,84,78,29.26,28.67,17,5,29,0.00
2013-12-27,47.6,44.1,39.3,43.6,40.8,36.1,95,88,78,28.65,28.15,23,16,48,0.39
2013-12-28,43.5,42.6,41.0,40.2,38.1,36.5,92,84,79,29.45,28.67,23,13,40,0.05
2013-12-29,46.5,42.5,39.6,43.6,39.2,37.1,95,88,80,29.75,29.45,16,7,29,0.00
2013-12-30,48.8,43.9,40.4,47.1,41.8,36.8,97,92,87,29.58,29.26,16,7,29,0.80
2013-12-31,45.7,43.4,39.9,42.0,38.9,36.7,90,84,77,29.57,29.23,15,6,25,0.02
2014-1-1,48.9,43.2,39.8,45.7,39.7,36.0,94,88,82,29.27,28.66,15,7,26,0.13
2014-1-2,46.6,43.9,42.0,42.1,40.3,37.8,94,87,80,29.11,28.66,20,9,29,0.00